(386478) = 2008 YU124 = 2012 TE267

Discovered at Kitt Peak on 2007-09-10 by Spacewatch.

Orbit

Orbit type: Main Belt

Note: WebGL enabled browser required.

epoch2024-03-31.0
epoch JD2460400.5
perihelion date2022-06-03.74626
perihelion JD2459734.24626
argument of perihelion (°)311.93795
ascending node (°)76.55820
inclination (°)3.01289
eccentricity0.0671161
perihelion distance (AU)2.6622705
Tisserand w.r.t. Jupiter3.3
ΔV w.r.t. Earth (km/sec)10.2
semimajor axis (AU)2.8538068
mean anomaly (°)136.20927
mean daily motion (°/day)0.20444050
aphelion distance (AU)3.045
period (years)4.82
P-vector [x]0.87784912
P-vector [y]0.45350211
P-vector [z]0.15400247
Q-vector [x]-0.47620119
Q-vector [y]0.79215836
Q-vector [z]0.38172969
absolute magnitude17.38
phase slope0.15
uncertainty0
referenceMPEC 2024-E73
observations used157
oppositions12
arc length (days)6021
first opposition used2007
last opposition used2024
residual rms (arc-secs)0.84
perturbers coarse indicatorM-v
perturbers precise indicator003Ek
first observation date used2007-09-10.0
last observation date used2024-03-05.0
computer nameMPCLINUX
JD of orbit computation2456732.301038
perihelion JD uncertainty (days)7.6407E-04
argument of perihelion uncertainty (°)2.0020E-04
ascending node uncertainty (°)1.0350E-04
inclination uncertainty (°)4.8439E-06
eccentricity uncertainty 1.9793E-07
perihelion distance uncertainty (AU)5.6902E-07
Minimum Orbit Intersection Distances (in AU)
for orbit epoch: 2460400.5, reference: E2024-FB1
Mercury2.32173
Venus1.93778
Earth1.66828
Mars1.17957
Jupiter2.27194
Saturn6.25622
Uranus15.4429
Neptune27.1595

Observations

157 total observations over interval: 2007 09 10.38229 – 2024 03 05.324260
These data are available for download (format description).

Date (UT) J2000 RA J2000 Dec Magn Location Ref
2007 09 10.38229 01 05 57.61 +02 17 43.2 21.0 V 691 – Steward Observatory, Kitt Peak-Spacewatch MPS 435264
2007 09 10.39987 01 05 57.07 +02 17 39.3 21.1 V 691 – Steward Observatory, Kitt Peak-Spacewatch MPS 435264
2007 09 10.41745 01 05 56.51 +02 17 34.6 20.9 V 691 – Steward Observatory, Kitt Peak-Spacewatch MPS 435264
2007 10 16.28450 00 39 34.09 -00 20 49.9 21.2 V G96 – Mt. Lemmon Survey MPS 435264
2007 10 16.29390 00 39 33.66 -00 20 52.3 21.0 V G96 – Mt. Lemmon Survey MPS 435264
2007 10 16.30343 00 39 33.22 -00 20 54.4 21.1 V G96 – Mt. Lemmon Survey MPS 435264
2007 10 16.31286 00 39 32.76 -00 20 56.4 20.8 V G96 – Mt. Lemmon Survey MPS 435264
2007 11 03.22620 00 28 14.59 -01 07 54.1 21.5 V G96 – Mt. Lemmon Survey MPS 435264
2007 11 03.23454 00 28 14.37 -01 07 54.9 22.1 V G96 – Mt. Lemmon Survey MPS 435264
2007 11 03.24287 00 28 14.12 -01 07 56.2 21.1 V G96 – Mt. Lemmon Survey MPS 435264
2007 11 03.25131 00 28 13.87 -01 07 56.8 21.1 V G96 – Mt. Lemmon Survey MPS 435264
2008 12 22.35122 08 22 47.33 +22 00 53.8 21.6 V 691 – Steward Observatory, Kitt Peak-Spacewatch MPS 272852
2008 12 22.36961 08 22 46.67 +22 00 57.5 21.4 V 691 – Steward Observatory, Kitt Peak-Spacewatch MPS 272852
2008 12 22.38775 08 22 46.01 +22 01 01.3 21.2 V 691 – Steward Observatory, Kitt Peak-Spacewatch MPS 272852
2008 12 30.34888 08 17 24.31 +22 29 05.8 20.9 V 691 – Steward Observatory, Kitt Peak-Spacewatch MPS 271915
2008 12 30.36725 08 17 23.46 +22 29 10.1 20.7 V 691 – Steward Observatory, Kitt Peak-Spacewatch MPS 271915
2008 12 30.38537 08 17 22.58 +22 29 14.6 21.5 V 691 – Steward Observatory, Kitt Peak-Spacewatch MPS 271915
2009 01 02.42302 08 14 59.28 +22 40 32.4 21.5 V G96 – Mt. Lemmon Survey MPS 271915
2009 01 02.43214 08 14 58.77 +22 40 34.2 21.5 V G96 – Mt. Lemmon Survey MPS 271915
2009 01 02.44129 08 14 58.34 +22 40 36.3 21.5 V G96 – Mt. Lemmon Survey MPS 271915
2009 01 02.45051 08 14 57.87 +22 40 38.7 21.3 V G96 – Mt. Lemmon Survey MPS 271915
2009 01 03.35557 08 14 13.47 +22 44 02.8 21.4 V 691 – Steward Observatory, Kitt Peak-Spacewatch MPS 272852
2009 01 03.37120 08 14 12.62 +22 44 06.4 20.9 V 691 – Steward Observatory, Kitt Peak-Spacewatch MPS 272852
2009 01 03.38683 08 14 11.94 +22 44 09.9 20.8 V 691 – Steward Observatory, Kitt Peak-Spacewatch MPS 272852
2009 01 07.36452 08 10 47.36 +22 59 08.9 21.2 V 691 – Steward Observatory, Kitt Peak-Spacewatch MPS 272852
2009 01 07.38015 08 10 46.51 +22 59 12.6 21.8 V 691 – Steward Observatory, Kitt Peak-Spacewatch MPS 272852
2009 01 07.39579 08 10 45.65 +22 59 16.3 21.1 V 691 – Steward Observatory, Kitt Peak-Spacewatch MPS 272852
2012 10 08.441481 02 13 38.651 +09 37 07.24 20.9 r F51 – Pan-STARRS 1, Haleakala MPS 435746
2012 10 08.521054 02 13 35.016 +09 36 50.46 20.8 i F51 – Pan-STARRS 1, Haleakala MPS 435746
2012 10 08.534735 02 13 34.406 +09 36 47.53 20.6 i F51 – Pan-STARRS 1, Haleakala MPS 435746
2012 10 17.403474 02 06 37.984 +09 04 04.75 20.8 w F51 – Pan-STARRS 1, Haleakala MPS 435746
2012 10 17.416897 02 06 37.284 +09 04 01.71 20.8 w F51 – Pan-STARRS 1, Haleakala MPS 435746
2012 10 17.430319 02 06 36.591 +09 03 58.81 20.9 w F51 – Pan-STARRS 1, Haleakala MPS 435746
2012 10 17.443850 02 06 35.874 +09 03 55.65 20.9 w F51 – Pan-STARRS 1, Haleakala MPS 435746
2012 10 21.16751 02 03 28.11 +08 49 44.9 21.3 V 691 – Steward Observatory, Kitt Peak-Spacewatch MPS 437958
2012 10 21.18518 02 03 27.20 +08 49 40.3 20.8 V 691 – Steward Observatory, Kitt Peak-Spacewatch MPS 437958
2012 10 21.20287 02 03 26.28 +08 49 37.0 21.1 V 691 – Steward Observatory, Kitt Peak-Spacewatch MPS 437958
2012 11 06.23367 01 50 05.02 +07 53 46.8 20.7 V G96 – Mt. Lemmon Survey MPS 439584
2012 11 06.23969 01 50 04.77 +07 53 45.9 20.9 V G96 – Mt. Lemmon Survey MPS 439584
2012 11 06.24572 01 50 04.48 +07 53 44.5 21.1 V G96 – Mt. Lemmon Survey MPS 439584
2012 11 06.25183 01 50 04.16 +07 53 43.5 20.6 V G96 – Mt. Lemmon Survey MPS 439584
2012 11 06.289359 01 50 02.608 +07 53 38.14 21.1 w F51 – Pan-STARRS 1, Haleakala MPS 439584
2012 11 06.304246 01 50 01.879 +07 53 35.48 21.1 w F51 – Pan-STARRS 1, Haleakala MPS 439584
2012 11 06.319227 01 50 01.160 +07 53 33.07 21.1 w F51 – Pan-STARRS 1, Haleakala MPS 439584
2012 11 06.334164 01 50 00.442 +07 53 30.52 20.8 w F51 – Pan-STARRS 1, Haleakala MPS 439584
2014 01 03.45910 09 34 41.23 +17 56 07.5   691 – Steward Observatory, Kitt Peak-Spacewatch MPS 493477
2014 01 03.47682 09 34 40.76 +17 56 11.5   691 – Steward Observatory, Kitt Peak-Spacewatch MPS 493477
2014 01 03.49456 09 34 40.26 +17 56 15.1   691 – Steward Observatory, Kitt Peak-Spacewatch MPS 493478
2014 02 26.40650 08 53 14.994 +21 33 19.38 21.3 w F51 – Pan-STARRS 1, Haleakala MPS 503982
2014 02 26.41951 08 53 14.465 +21 33 20.85 21.6 w F51 – Pan-STARRS 1, Haleakala MPS 503982
2014 02 26.44552 08 53 13.379 +21 33 24.45 21.6 w F51 – Pan-STARRS 1, Haleakala MPS 503982
2015 04 23.40749 14 27 50.576 -11 33 20.94 21.8 w F51 – Pan-STARRS 1, Haleakala MPS 603115
2015 04 23.41998 14 27 49.948 -11 33 18.53 21.5 w F51 – Pan-STARRS 1, Haleakala MPS 603115
2015 04 23.43246 14 27 49.305 -11 33 15.79 21.4 w F51 – Pan-STARRS 1, Haleakala MPS 603115
2015 04 25.45954 14 26 08.567 -11 26 05.08 21.3 w F51 – Pan-STARRS 1, Haleakala MPS 604571
2015 04 25.47177 14 26 07.950 -11 26 02.44 21.6 w F51 – Pan-STARRS 1, Haleakala MPS 604571
2015 04 25.49639 14 26 06.669 -11 25 57.20 21.6 w F51 – Pan-STARRS 1, Haleakala MPS 604571
2015 05 22.37561 14 05 27.072 -10 04 06.59 22.0 w F51 – Pan-STARRS 1, Haleakala MPS 609792
2015 05 22.38890 14 05 26.537 -10 04 04.93 22.1 w F51 – Pan-STARRS 1, Haleakala MPS 609792
2015 05 22.40215 14 05 26.044 -10 04 03.04 21.8 w F51 – Pan-STARRS 1, Haleakala MPS 609792
2016 07 04.50542 20 42 56.669 -21 20 45.97 21.4 w F51 – Pan-STARRS 1, Haleakala MPS 719294
2016 07 04.51613 20 42 56.249 -21 20 48.46 21.5 w F51 – Pan-STARRS 1, Haleakala MPS 719294
2016 07 04.52685 20 42 55.830 -21 20 50.65 21.4 w F51 – Pan-STARRS 1, Haleakala MPS 719294
2016 08 07.39098 20 15 21.499 -23 25 15.41 21.2 w F51 – Pan-STARRS 1, Haleakala MPS 724945
2016 08 07.40195 20 15 20.944 -23 25 17.49 21.3 w F51 – Pan-STARRS 1, Haleakala MPS 724945
2016 08 07.41290 20 15 20.357 -23 25 19.25 21.4 w F51 – Pan-STARRS 1, Haleakala MPS 724945
2016 08 07.42389 20 15 19.788 -23 25 21.09 21.2 w F51 – Pan-STARRS 1, Haleakala MPS 724945
2017 10 22.34841 03 36 40.72 +16 56 56.6 22.3 G G96 – Mt. Lemmon Survey MPS 831463
2017 10 22.35372 03 36 40.53 +16 56 55.6 22.0 G G96 – Mt. Lemmon Survey MPS 831463
2017 10 22.35892 03 36 40.28 +16 56 55.5 21.2 G G96 – Mt. Lemmon Survey MPS 831463
2017 10 22.36409 03 36 40.08 +16 56 54.5 21.3 G G96 – Mt. Lemmon Survey MPS 831463
2017 10 28.56143 03 32 12.151 +16 45 09.02 21.0 w F51 – Pan-STARRS 1, Haleakala MPS 834138
2017 10 28.57382 03 32 11.547 +16 45 07.61 21.2 w F51 – Pan-STARRS 1, Haleakala MPS 834138
2017 10 28.58621 03 32 10.951 +16 45 05.83 21.2 w F51 – Pan-STARRS 1, Haleakala MPS 834138
2017 10 28.59852 03 32 10.361 +16 45 04.35 21.1 w F51 – Pan-STARRS 1, Haleakala MPS 834138
2017 11 15.28829 03 16 43.43 +16 04 11.8 20.8 G G96 – Mt. Lemmon Survey MPS 838904
2017 11 15.29353 03 16 43.15 +16 04 10.9 20.6 G G96 – Mt. Lemmon Survey MPS 838904
2017 11 15.29869 03 16 42.81 +16 04 10.5 20.8 G G96 – Mt. Lemmon Survey MPS 838904
2017 11 15.30385 03 16 42.53 +16 04 09.6 20.6 G G96 – Mt. Lemmon Survey MPS 838904
2017 11 26.23975 03 07 05.17 +15 39 37.9 20.8 G G96 – Mt. Lemmon Survey MPS 844936
2017 11 26.24494 03 07 04.93 +15 39 36.0 21.1 G G96 – Mt. Lemmon Survey MPS 844936
2017 11 26.25013 03 07 04.69 +15 39 35.4 21.2 G G96 – Mt. Lemmon Survey MPS 844936
2017 11 26.25535 03 07 04.40 +15 39 35.0   G96 – Mt. Lemmon Survey MPS 844936
2017 12 07.26185 02 59 03.627 +15 21 41.93 21.4 w F51 – Pan-STARRS 1, Haleakala MPS 845941
2017 12 07.27561 02 59 03.120 +15 21 41.11 21.4 w F51 – Pan-STARRS 1, Haleakala MPS 845941
2017 12 07.28935 02 59 02.549 +15 21 39.99 21.3 w F51 – Pan-STARRS 1, Haleakala MPS 845941
2017 12 07.30307 02 59 02.027 +15 21 39.25 21.3 w F51 – Pan-STARRS 1, Haleakala MPS 845941
2017 12 08.27455 02 58 26.666 +15 20 32.92 21.1 w F51 – Pan-STARRS 1, Haleakala MPS 845941
